Flag Weather past 2 weeks in Sankt Ingbert, Saarland, Germany

Now
56 °F

Fog.


Feels Like: 56 °F
Forecast: 45 / 61 °F
Wind: 1 mph from South

Location: Saarbruecken / Ensheim

Current Time: Oct 30, 2014 at 1:47:50 PM

Latest Report: Oct 30, 2014 at 1:00 PM


Visibility: 3 mi

Pressure: 30.26 "Hg

Humidity: 91%

Dew point: 54 °F

Location of Sankt IngbertLocation

Historic Weather in Sankt Ingbert — Graph

°F

Sankt Ingbert temperature yesterday

Maximum temperature yesterday: 52 °F (at 1:00 PM)
Minimum temperature yesterday: 44 °F (at 12:00 AM)
Average temperature yesterday: 48 °F

Past Weeks' High & Low Weather Summary

 TemperatureHumidityPressure
High71 °F (Oct 19, 4:00 PM)100% (Oct 17, 8:00 AM)30.32 "Hg (Oct 17, 8:00 AM)
Low38 °F (Oct 24, 2:00 AM)61% (Oct 18, 3:00 PM)29.66 "Hg (Oct 21, 5:00 PM)
Average52 °F91%30.11 "Hg
* Reported Oct 15 2:00 PM — Oct 30 1:00 PM, Sankt Ingbert, Weather by CustomWeather, © 2014

Note: Actual official high and low records may vary slightly from our data, if they occured in-between our weather recording intervals... More about our weather records

Advertising

Sankt Ingbert weather history for previous 24 hours

 ConditionsComfort  
Time TempWeatherWind HumidityBarometerVisibility
1:00 PM
Oct 30
56 °FFog.1 mph91%30.26 "Hg2 mi
12:00 PM55 °FFog.1 mph94%30.26 "Hg2 mi
11:00 AM53 °FFog.1 mph96%30.27 "Hg1 mi
10:00 AM52 °FFog.1 mph99%30.26 "Hg1 mi
9:00 AM51 °FFog.1 mph100%30.25 "Hg1 mi
8:00 AM51 °FCool.1 mph100%30.24 "HgN/A
7:00 AM50 °FFog.1 mph100%30.21 "Hg1 mi
6:00 AM51 °FFog.1 mph100%30.21 "Hg1 mi
5:00 AM51 °FFog.1 mph100%30.19 "Hg1 mi
4:00 AM50 °FLow clouds.1 mph100%30.19 "Hg1 mi
3:00 AM50 °FLight rain. Low clouds.No wind100%30.19 "Hg1 mi
2:00 AM50 °FCool.1 mph100%30.18 "HgN/A
1:00 AM50 °FLight rain. Low clouds.2 mph100%30.18 "Hg1 mi
12:00 AM50 °FLight rain. Low clouds.1 mph100%30.18 "Hg1 mi
11:00 PM
Oct 29
50 °FRain. Low clouds.1 mph99%30.17 "Hg1 mi
10:00 PM50 °FLight rain. Low clouds.1 mph99%30.16 "Hg1 mi
9:00 PM50 °FLow clouds.2 mph99%30.15 "Hg1 mi
8:00 PM49 °FLight rain. Low clouds.2 mph99%30.14 "Hg1 mi
7:00 PM49 °FLight rain. Low clouds.2 mph99%30.14 "Hg2 mi
6:00 PM50 °FLight rain. Low clouds.3 mph97%30.12 "Hg2 mi
5:00 PM50 °FLow clouds.3 mph93%30.10 "Hg5 mi
4:00 PM51 °FLow clouds.3 mph90%30.10 "Hg6 mi
3:00 PM51 °FLow clouds.5 mph90%30.09 "Hg7 mi
2:00 PM52 °FOvercast.5 mph90%30.10 "Hg10 mi
1:00 PM52 °FOvercast.3 mph90%30.09 "Hg10 mi
Weather by CustomWeather, © 2014

See weather overviewHow to use our weather pages